Skip Page Navigation
NASA JPL Caltech
NASA Logo - Jet Propulsion Laboratory + View the NASA Portal
+ Center for Near-Earth Object Studies
JPL Home Earth Solar System Stars & Galaxies Technology
JPL Solar System Dynamics
BODIES ORBITS EPHEMERIDES TOOLS PHYSICAL DATA DISCOVERY FAQ SITE MAP
IMPORTANT: The SSD Announcement email list is now available. Major changes are coming in the near future, including possible hostname and/or URL changes. To be notified of such changes, subscribe to this email list.

Please visit this page for more details.


JPL Small-Body Database Browser
Search: [ help ]  
233607 (2007 SX12)
Classification: Main-belt Asteroid          SPK-ID: 2233607
Ephemeris | Orbit Diagram | Orbital Elements | Mission Design | Physical Parameters | Discovery Circumstances | Close-Approach Data ]

[ show orbit diagram ]
Orbital Elements at Epoch 2458600.5 (2019-Apr-27.0) TDB
Reference: JPL 13 (heliocentric ecliptic J2000)
 Element Value Uncertainty (1-sigma)   Units 
e .2005950444022296 6.3825e-08  
a 2.594408951920127 2.2823e-08 au
q 2.073983373012167 1.7452e-07 au
i 5.883641437631675 1.042e-05 deg
node 335.6974123542562 3.6046e-05 deg
peri 306.5802571996636 4.2547e-05 deg
M 343.9723376383934 1.9604e-05 deg
tp 2458668.455367020836
(2019-Jul-03.95536702)
8.3011e-05 TDB
period 1526.356843285087
4.18
2.0141e-05
5.514e-08
d
yr
n .2358557250774946 3.1122e-09 deg/d
Q 3.114834530828086 2.7401e-08 au
  Orbit Determination Parameters
   # obs. used (total)      295  
   data-arc span      6341 days (17.36 yr)  
   first obs. used      2002-06-13  
   last obs. used      2019-10-23  
   planetary ephem.      DE431  
   SB-pert. ephem.      SB431-N16  
   condition code      0  
   norm. resid. RMS      .53845  
   source      ORB  
   producer      Otto Matic  
   solution date      2019-Nov-08 01:36:30  

Additional Information
 Earth MOID = 1.06354 au 
 Jupiter MOID = 2.0759 au 
 T_jup = 3.382 
[ hide covariance matrix ]
Orbital Elements at Epoch 2456773.5 (2014-Apr-26.0) TDB
Reference: JPL 13 (heliocentric ecliptic J2000)
 Element Value Uncertainty (1-sigma)   Units 
e .1996789404516335 6.4041e-08  
q 2.075694993047212 1.7493e-07 au
tp 2457143.849468135709
(2015-May-01.34946814)
8.7958e-05 TDB
node 335.7440018479331 3.6033e-05 deg
peri 306.8020580732824 4.2561e-05 deg
i 5.884794668627364 1.0421e-05 deg
  Orbit Determination Parameters
   # obs. used (total)      295  
   data-arc span      6341 days (17.36 yr)  
   first obs. used      2002-06-13  
   last obs. used      2019-10-23  
   planetary ephem.      DE431  
   SB-pert. ephem.      SB431-N16  
   condition code      0  
   norm. resid. RMS      .53845  
   source      ORB  
   producer      Otto Matic  
   solution date      2019-Nov-08 01:36:30  

Additional Information
 Jupiter MOID = 2.0759 au 
 T_jup = 3.382 
Orbit Covariance (6×6)
  e q tp node peri i
e 4.101221001715336E-15 -1.115367149833885E-14 4.25718700083717E-12 1.82657341751816E-15 1.056933721892916E-12 -1.3845268967756E-14
q -1.115367149833885E-14 3.059946031006457E-14 -1.158544384354829E-11 -5.902269976637794E-15 -2.901893762054308E-12 3.981707381597643E-14
tp 4.25718700083717E-12 -1.158544384354829E-11 7.736548475159778E-9 3.080036917996963E-12 1.991088223731018E-9 -2.116555101640515E-11
node 1.82657341751816E-15 -5.902269976637794E-15 3.080036917996963E-12 1.298366159271085E-9 -1.289759181100654E-9 2.707308394474054E-12
peri 1.056933721892916E-12 -2.901893762054308E-12 1.991088223731018E-9 -1.289759181100654E-9 1.811469770119193E-9 -7.881544724241658E-12
i -1.3845268967756E-14 3.981707381597643E-14 -2.116555101640515E-11 2.707308394474054E-12 -7.881544724241658E-12 1.085996649904736E-10

Ephemeris | Orbit Diagram | Orbital Elements | Mission Design | Physical Parameters | Discovery Circumstances | Close-Approach Data ]

Physical Parameter Table
Parameter Symbol Value Units Sigma Reference Notes
absolute magnitude H 16.3   n/a MPO440205  

233607 (2007 SX12)          Discovered 2007-Sep-19 by Spacewatch at Kitt Peak
Reference: 20100228/Numbers.arcLast Updated: 2010-03-03

[ show close-approach data ]
Alternate Designations
 2007 SX12 = 2003 UM369 
Ephemeris | Orbit Diagram | Orbital Elements | Mission Design | Physical Parameters | Discovery Circumstances | Close-Approach Data ]
ABOUT SSD CREDITS/AWARDS PRIVACY/COPYRIGHT GLOSSARY LINKS
FirstGov 2020-Jan-22 14:55 UT
(server date/time)  
NASA Home Page
Site Manager:   Ryan S. Park
Webmaster  Alan B. Chamberlin